Location: Buckland
(65.9785°N, 161.1281°W)
Time: 13:50:01
(UTC+00:00)

Transit 4A - Pass Details

Date: 12 October 2022
Orbit: 871 x 972 km, 66.8° (Epoch: 29 November)

Event Time Altitude Azimuth Distance (km) Brightness Sun altitude
Rises 08:17:52 0° 222° (SW) 3,566 10.9 -27.1°
Enters shadow 08:18:20 - 221° (SW) 3,394 10.7 -27.1°
Exits shadow 08:32:57 - 63° (ENE) 2,860 10.4 -28.0°
Sets 08:34:38 0° 61° (ENE) 3,489 10.9 -28.1°
